La Mercy, South Africa

8:38 AM SAST on November 18, 2017 (GMT +0200)
La Mercy

Weather History for FALE - December, 2011

Change the Weather History Date:

Sunday, December 11, 2011

  Actual Average Record
Temperature  
Mean Temperature 73 °F -  
Max Temperature 78 °F - - ()
Min Temperature 68 °F - - ()
Cooling Degree Days 8    
Growing Degree Days 23 (Base 50)    
Moisture  
Dew Point 68 °F    
Average Humidity 84    
Maximum Humidity 94    
Minimum Humidity 61    
Precipitation  
Precipitation 0.00 in - - ()
Sea Level Pressure  
Sea Level Pressure 29.77 in    
Wind  
Wind Speed 5 mph ()    
Max Wind Speed 17 mph    
Max Gust Speed -    
Visibility 5.6 miles    
Events Rain , Thunderstorm    
T = Trace of Precipitation, MM = Missing Value Source: Averaged Metar Reports

Daily Weather History Graph

Daily Weather History Graph

Search for Another Location

Airport or City:

Trip Planner

Search our weather history database for the weather conditions in past years. The results will help you decide how hot, cold, wet, or windy it might be!

Date:

Astronomy

Dec. 11, 2011 Rise Set
Actual Time 4:48 AM SAST 6:48 PM SAST
Civil Twilight 4:21 AM SAST 7:16 PM SAST
Nautical Twilight 3:48 AM SAST 7:49 PM SAST
Astronomical Twilight 3:13 AM SAST 8:24 PM SAST
Moon 7:37 PM SAST (12/11) 5:19 AM SAST (12/11)
Length of Visible Light 14h 54m
Length of Day
14h 00m
Full, 99% of the Moon is Illuminated
Dec 11
Full
Dec 18
Last Quarter
Dec 24
New
Jan 1
First Quarter
Jan 9
Full

Hourly Weather History & Observations

Time (SAST) Temp. Dew Point Humidity Pressure Visibility Wind Dir Wind Speed Gust Speed Precip Events Conditions
12:00 AM 69.8 °F 68.0 °F 94% 29.89 in 6.2 mi SSW 6.9 mph - N/A   Scattered Clouds
1:00 AM 68.0 °F 66.2 °F 94% 29.86 in 6.2 mi Variable 1.2 mph - N/A   Scattered Clouds
1:23 AM 68.0 °F 66.2 °F 94% 29.83 in 1.2 mi Variable 2.3 mph - N/A   Scattered Clouds
1:44 AM 68.0 °F 66.2 °F 94% 29.83 in 3.1 mi Variable 1.2 mph - N/A   Partly Cloudy
2:00 AM 68.0 °F 66.2 °F 94% 29.83 in 4.3 mi Variable 1.2 mph - N/A   Partly Cloudy
3:00 AM 68.0 °F 66.2 °F 94% 29.83 in 6.2 mi South 4.6 mph - N/A   Scattered Clouds
4:00 AM 68.0 °F 66.2 °F 94% 29.83 in 6.2 mi SW 5.8 mph - N/A   Mostly Cloudy
5:00 AM 68.0 °F 66.2 °F 94% 29.83 in 6.2 mi SW 10.4 mph - N/A   Mostly Cloudy
6:00 AM 68.0 °F 66.2 °F 94% 29.83 in 6.2 mi SW 5.8 mph - N/A   Mostly Cloudy
6:30 AM 71.6 °F 66.2 °F 83% 29.83 in 6.2 mi Variable 2.3 mph - N/A   Scattered Clouds
7:00 AM 71.6 °F 66.2 °F 83% 29.83 in 6.2 mi WSW 3.5 mph - N/A   Scattered Clouds
8:00 AM 73.4 °F 66.2 °F 78% 29.83 in 6.2 mi West 4.6 mph - N/A   Scattered Clouds
8:48 AM 77.0 °F 66.2 °F 69% 29.83 in 6.2 mi Variable 3.5 mph - N/A   Scattered Clouds
9:00 AM 77.0 °F 66.2 °F 69% 29.83 in 6.2 mi Variable 2.3 mph - N/A   Scattered Clouds
10:00 AM 78.8 °F 64.4 °F 61% 29.80 in 6.2 mi Variable 2.3 mph - N/A   Scattered Clouds
11:00 AM 77.0 °F 68.0 °F 74% 29.77 in 6.2 mi East 8.1 mph - N/A   Scattered Clouds
12:00 PM 77.0 °F 66.2 °F 69% 29.77 in 6.2 mi East 10.4 mph - N/A   Partly Cloudy
1:00 PM 75.2 °F 66.2 °F 73% 29.74 in 6.2 mi East 10.4 mph - N/A   Partly Cloudy
2:00 PM 75.2 °F 66.2 °F 73% 29.71 in 6.2 mi East 11.5 mph - N/A   Partly Cloudy
3:00 PM 77.0 °F 68.0 °F 74% 29.68 in 6.2 mi East 9.2 mph - N/A   Partly Cloudy
4:00 PM 77.0 °F 66.2 °F 69% 29.68 in 6.2 mi East 6.9 mph - N/A   Partly Cloudy
5:00 PM 73.4 °F 66.2 °F 78% 29.68 in 6.2 mi ENE 9.2 mph - N/A   Mostly Cloudy
6:00 PM 75.2 °F 68.0 °F 78% 29.68 in 6.2 mi SSE 4.6 mph - N/A Rain Light Rain Showers
7:00 PM 73.4 °F 68.0 °F 83% 29.68 in 6.2 mi WNW 4.6 mph - N/A   Partly Cloudy
8:00 PM 73.4 °F 68.0 °F 83% 29.71 in 6.2 mi SSW 3.5 mph - N/A   Partly Cloudy
9:00 PM 73.4 °F 69.8 °F 88% 29.74 in 6.2 mi SSW 8.1 mph - N/A   Partly Cloudy
9:01 PM 73.4 °F 69.8 °F 88% 29.74 in 5.0 mi South 6.9 mph - N/A Rain Light Rain Showers
9:09 PM 73.4 °F 69.8 °F 88% 29.74 in 2.8 mi SSE 6.9 mph - N/A Rain Light Rain Showers
9:17 PM 73.4 °F 69.8 °F 88% 29.74 in 4.3 mi SE 4.6 mph - N/A Rain Light Rain Showers
10:00 PM 73.4 °F 69.8 °F 88% 29.74 in 5.6 mi Variable 1.2 mph - N/A Rain Light Rain
10:27 PM 73.4 °F 71.6 °F 94% 29.74 in 6.2 mi Variable 2.3 mph - N/A Thunderstorm Thunderstorm
11:00 PM 73.4 °F 71.6 °F 94% 29.74 in 6.2 mi WSW 9.2 mph - N/A Thunderstorm Thunderstorm
11:24 PM 73.4 °F 69.8 °F 88% 29.77 in 3.7 mi SSW 17.3 mph - N/A Rain , Thunderstorm Light Thunderstorms and Rain
11:43 PM 71.6 °F 69.8 °F 94% 29.74 in 5.6 mi SSW 17.3 mph - N/A Rain Light Rain
11:54 PM 71.6 °F 69.8 °F 94% 29.74 in 6.2 mi South 6.9 mph - N/A   Mostly Cloudy